DW4360 Weather Reports


Display with metric or nautical units.
time (UTC)temp
F
wind
direction
speed
MPH
gust
MPH
rain 1hr
in
rain 24hr
in
rain mn
in
humidity
%
barometer
mb
20260831153442 59 317 0.0 0.0 0.00 0.00 0.00 85 1010.3
20260831152442 58 316 2.0 0.0 0.00 0.00 0.00 86 1010.4
20260831151440 58 323 5.0 0.0 0.00 0.00 0.00 87 1010.7
20260831150439 57 325 0.0 0.0 0.00 0.00 0.00 88 1010.6
20260831145438 57 318 0.0 0.0 0.00 0.00 0.00 89 1010.7
20260831144438 56 320 0.0 0.0 0.00 0.00 0.00 89 1010.7
20260831143436 56 320 0.0 0.0 0.00 0.00 0.00 89 1010.7
20260831142436 56 320 0.0 0.0 0.00 0.00 0.00 89 1010.6
20260831141434 56 320 0.0 0.0 0.00 0.00 0.00 88 1010.6
20260831140433 56 320 0.0 0.0 0.00 0.00 0.00 88 1010.7
20260831135432 56 320 0.0 0.0 0.00 0.00 0.00 88 1010.8
20260831133430 56 320 0.0 0.0 0.00 0.00 0.00 87 1010.7
20260831132429 56 320 0.0 0.0 0.00 0.00 0.00 87 1010.8
20260831130427 56 320 0.0 0.0 0.00 0.00 0.00 87 1010.8
20260831125426 56 320 0.0 0.0 0.00 0.00 0.00 86 1010.9
20260831124425 57 320 0.0 0.0 0.00 0.00 0.00 86 1011.0
20260831123424 57 320 0.0 0.0 0.00 0.00 0.00 86 1010.9
20260831122423 57 320 0.0 0.0 0.00 0.00 0.00 86 1011.1
20260831121422 57 320 0.0 0.0 0.00 0.00 0.00 86 1011.2
20260831120421 57 320 0.0 0.0 0.00 0.00 0.00 86 1011.2
20260831115420 58 320 0.0 0.0 0.00 0.00 0.00 85 1011.2
20260831114419 58 320 0.0 0.0 0.00 0.00 0.00 84 1011.3
20260831113418 58 320 0.0 0.0 0.00 0.00 0.00 84 1011.4
20260831112417 58 320 0.0 0.0 0.00 0.00 0.00 84 1011.4
20260831111416 59 320 0.0 0.0 0.00 0.00 0.00 83 1011.5
20260831105414 59 320 0.0 0.0 0.00 0.00 0.00 83 1011.6
20260831103412 59 320 0.0 0.0 0.00 0.00 0.00 82 1011.6
20260831102411 60 320 0.0 0.0 0.00 0.00 0.00 82 1011.7
20260831101410 60 320 0.0 0.0 0.00 0.00 0.00 81 1011.7
20260831100409 60 320 0.0 0.0 0.00 0.00 0.00 81 1011.8
20260831095408 60 320 0.0 0.0 0.00 0.00 0.00 81 1011.9
20260831094407 60 320 0.0 0.0 0.00 0.00 0.00 81 1012.0
20260831093406 60 320 0.0 0.0 0.00 0.00 0.00 81 1012.1
20260831092405 60 320 0.0 0.0 0.00 0.00 0.00 81 1012.1
20260831091404 60 320 0.0 0.0 0.00 0.00 0.00 81 1012.2
20260831090403 60 320 0.0 0.0 0.00 0.00 0.00 80 1012.3
20260831083400 61 319 0.0 0.0 0.00 0.00 0.00 79 1012.6
20260831082359 61 319 0.0 0.0 0.00 0.00 0.00 78 1012.8
20260831081358 62 320 0.0 0.0 0.00 0.00 0.00 78 1012.8
20260831080357 62 320 0.0 0.0 0.00 0.00 0.00 77 1012.9
20260831075356 62 319 0.0 0.0 0.00 0.00 0.00 77 1013.0
20260831073354 63 319 0.0 0.0 0.00 0.00 0.00 76 1013.0
20260831071352 63 319 0.0 0.0 0.00 0.00 0.00 75 1013.2
20260831070351 63 319 0.0 0.0 0.00 0.00 0.00 74 1013.2
20260831065349 64 319 0.0 0.0 0.00 0.00 0.00 74 1013.3
20260831064349 64 309 0.0 0.0 0.00 0.00 0.00 74 1013.4
20260831063348 64 327 0.0 0.0 0.00 0.00 0.00 73 1013.5
20260831060344 65 327 0.0 0.0 0.00 0.00 0.00 71 1013.7
20260831053341 65 325 3.0 0.0 0.00 0.00 0.00 70 1013.9
20260831051340 65 325 0.0 0.0 0.00 0.00 0.00 69 1014.2
20260831050338 66 317 2.0 0.0 0.00 0.00 0.00 68 1014.2
20260831045337 66 317 2.0 0.0 0.00 0.00 0.00 68 1014.3
20260831044337 66 317 0.0 0.0 0.00 0.00 0.00 67 1014.3
20260831043335 66 320 0.0 0.0 0.00 0.00 0.00 66 1014.4
20260831040332 67 318 4.0 0.0 0.00 0.00 0.00 65 1014.5
20260831034330 67 326 0.0 0.0 0.00 0.00 0.00 63 1014.5
20260831033329 68 326 0.0 0.0 0.00 0.00 0.00 62 1014.5
20260831031327 68 324 0.0 0.0 0.00 0.00 0.00 61 1014.5
20260831030326 69 321 0.0 0.0 0.00 0.00 0.00 60 1014.6
20260831025325 69 318 0.0 0.0 0.00 0.00 0.00 59 1014.5
20260831024324 69 317 3.0 0.0 0.00 0.00 0.00 58 1014.6
20260831023323 70 333 8.0 0.0 0.00 0.00 0.00 58 1014.8
20260831021321 70 319 6.0 0.0 0.00 0.00 0.00 56 1014.7
20260831020320 70 313 0.0 0.0 0.00 0.00 0.00 55 1014.9
20260831015319 71 338 9.0 0.0 0.00 0.00 0.00 55 1014.9
20260831014318 71 321 6.0 0.0 0.00 0.00 0.00 54 1015.0
20260831011315 73 317 0.0 0.0 0.00 0.00 0.00 50 1015.3
20260831010314 74 306 0.0 0.0 0.00 0.00 0.00 49 1015.3
20260831005313 75 306 5.0 0.0 0.00 0.00 0.00 48 1015.4
20260831004312 76 321 7.0 0.0 0.00 0.00 0.00 46 1015.5
20260831003311 78 317 2.0 0.0 0.00 0.00 0.00 44 1015.6
20260831002310 78 5 0.0 0.0 0.00 0.00 0.00 43 1015.7
20260831001309 78 323 3.0 0.0 0.00 0.00 0.00 42 1015.7
20260830235307 78 321 0.0 0.0 0.00 0.00 0.00 42 1015.8
20260830233305 76 326 0.0 0.0 0.00 0.00 0.00 46 1016.0
20260830232306 76 323 4.0 0.0 0.00 0.00 0.00 45 1016.2
20260830231303 76 323 4.0 0.0 0.00 0.00 0.00 46 1016.2
20260830230302 75 308 0.0 0.0 0.00 0.00 0.00 47 1016.3
20260830225305 74 299 4.0 0.0 0.00 0.00 0.00 48 1016.5
20260830224300 74 317 4.0 0.0 0.00 0.00 0.00 48 1016.7
20260830223259 74 317 0.0 0.0 0.00 0.00 0.00 47 1016.9
20260830222258 74 329 0.0 0.0 0.00 0.00 0.00 46 1017.1
20260830214254 76 88 0.0 0.0 0.00 0.00 0.00 43 1017.6
20260830213253 77 307 0.0 0.0 0.00 0.00 0.00 44 1017.8
20260830212252 77 319 4.0 0.0 0.00 0.00 0.00 44 1017.8
20260830211251 76 104 0.0 0.0 0.00 0.00 0.00 44 1017.9
20260830210250 76 319 0.0 0.0 0.00 0.00 0.00 46 1018.1
20260830205249 75 244 0.0 0.0 0.00 0.00 0.00 47 1018.1
20260830204248 74 328 0.0 0.0 0.00 0.00 0.00 48 1018.2
20260830203247 73 360 0.0 0.0 0.00 0.00 0.00 49 1018.4
20260830202246 72 331 0.0 0.0 0.00 0.00 0.00 50 1018.6
20260830195243 70 317 0.0 0.0 0.00 0.00 0.00 54 1018.8
20260830194242 70 318 1.0 0.0 0.00 0.00 0.00 53 1018.8
20260830193240 70 122 0.0 0.0 0.00 0.00 0.00 54 1018.9
20260830191238 68 319 0.0 0.0 0.00 0.00 0.00 55 1019.2
20260830185236 67 323 3.0 0.0 0.00 0.00 0.00 59 1019.4
20260830184235 66 113 0.0 0.0 0.00 0.00 0.00 58 1019.5
20260830183234 66 326 2.0 0.0 0.00 0.00 0.00 58 1019.5
20260830182233 66 321 0.0 0.0 0.00 0.00 0.00 62 1019.5
20260830181233 66 331 0.0 0.0 0.00 0.00 0.00 62 1019.6
20260830180232 67 338 0.0 0.0 0.00 0.00 0.00 60 1019.6
20260830175231 68 109 0.0 0.0 0.00 0.00 0.00 59 1019.5
20260830174229 68 59 0.0 0.0 0.00 0.00 0.00 61 1019.5
20260830172227 65 112 0.0 0.0 0.00 0.00 0.00 70 1019.5
20260830170225 61 319 0.0 0.0 0.00 0.00 0.00 77 1019.6
20260830165225 60 319 0.0 0.0 0.00 0.00 0.00 81 1019.5
20260830163222 58 319 0.0 0.0 0.00 0.00 0.00 84 1019.6
20260830162221 57 319 0.0 0.0 0.00 0.00 0.00 85 1019.7
20260830161220 56 318 0.0 0.0 0.00 0.00 0.00 86 1019.8
20260830160219 56 318 0.0 0.0 0.00 0.00 0.00 88 1019.9